Weather History for New Delhi, India

Change the Weather History Date:

Thursday, March 21, 2013

  Actual Average Record
Temperature  
Mean Temperature 76 °F -  
Max Temperature 89 °F 92 °F 102 °F (2004)
Min Temperature 64 °F 68 °F 55 °F (1999)
Cooling Degree Days 12    
Growing Degree Days 26 (Base 50)    
Moisture  
Dew Point 57 °F    
Average Humidity 53    
Maximum Humidity 100    
Minimum Humidity 22    
Precipitation  
Precipitation 0.00 in - - ()
Sea Level Pressure  
Sea Level Pressure 29.83 in    
Wind  
Wind Speed 5 mph ()    
Max Wind Speed 15 mph    
Max Gust Speed 23 mph    
Visibility 2.0 miles    
Events Fog    
Averages and records for this station are not official NWS values.
T = Trace of Precipitation, MM = Missing Value Source: Averaged Metar Reports

Daily Weather History Graph

Daily Weather History Graph

Search for Another Location

Airport:

Trip Planner

Search our weather history database for the weather conditions in past years. The results will help you decide how hot, cold, wet, or windy it might be!

Date:

Astronomy

Mar. 21, 2013 Rise Set
Actual Time 6:24 AM IST 6:33 PM IST
Civil Twilight 6:00 AM IST 6:56 PM IST
Nautical Twilight 5:33 AM IST 7:24 PM IST
Astronomical Twilight 5:05 AM IST 7:52 PM IST
Moon 1:01 PM IST (3/21) 2:02 AM IST (3/21)
Length of Visible Light 12h 55m
Length of Day
12h 08m
Waxing Gibbous, 65% of the Moon is Illuminated
Mar 21
Waxing Gibbous
Mar 27
Full
Apr 3
Last Quarter
Apr 10
New
Apr 18
First Quarter

Hourly Weather History & Observations

Time (IST) Temp. Heat Index Dew Point Humidity Pressure Visibility Wind Dir Wind Speed Gust Speed Precip Events Conditions
12:00 AM 78.8 °F - 53.6 °F 42% 29.86 in 2.8 mi WSW 5.8 mph - N/A   Haze
12:30 AM 77.0 °F - 51.8 °F 41% 29.86 in 2.8 mi ENE 3.5 mph - N/A   Haze
1:30 AM 73.4 °F - 57.2 °F 57% 29.83 in 2.8 mi Calm Calm - N/A   Haze
2:00 AM 71.6 °F - 59.0 °F 64% 29.83 in 2.8 mi Calm Calm - N/A   Haze
2:30 AM 71.6 °F - 59.0 °F 64% 29.80 in 2.8 mi Calm Calm - N/A   Haze
3:00 AM 71.6 °F - 59.0 °F 64% 29.83 in 2.8 mi NNW 6.9 mph - N/A   Haze
3:30 AM 69.8 °F - 55.4 °F 60% 29.83 in 2.8 mi WNW 4.6 mph - N/A   Haze
4:00 AM 69.8 °F - 57.2 °F 64% 29.83 in - WNW 4.6 mph - N/A   Haze
4:30 AM 68.0 °F - 57.2 °F 68% 29.80 in - WSW 4.6 mph - N/A   Haze
5:00 AM 66.2 °F - 57.2 °F 73% 29.80 in 2.2 mi SW 3.5 mph - N/A   Haze
6:30 AM 64.4 °F - 59.0 °F 83% 29.83 in 1.3 mi Calm Calm - N/A   Scattered Clouds
7:00 AM 64.4 °F - 59.0 °F 83% 29.86 in 1.1 mi West 3.5 mph - N/A   Scattered Clouds
7:30 AM 66.2 °F - 60.8 °F 83% 29.86 in 1.0 mi West 3.5 mph - N/A   Partly Cloudy
8:30 AM 71.6 °F - 71.6 °F 100% 29.89 in 0.6 mi WSW 5.8 mph - N/A Fog Shallow Fog
9:30 AM 75.2 °F - 69.8 °F 83% 29.89 in 0.6 mi WSW 3.5 mph - N/A   Partly Cloudy
10:00 AM 77.0 °F - 68.0 °F 74% 29.92 in 0.7 mi West 4.6 mph - N/A   Smoke
11:00 AM 80.6 °F 81.8 °F 62.6 °F 54% 29.92 in 1.0 mi West 6.9 mph - N/A   Smoke
11:30 AM 82.4 °F 83.4 °F 62.6 °F 51% 29.92 in 1.1 mi WNW 6.9 mph - N/A   Smoke
12:30 PM 87.8 °F 86.1 °F 55.4 °F 33% 29.89 in 1.6 mi NW 8.1 mph - N/A   Smoke
1:00 PM 89.6 °F 87.3 °F 53.6 °F 29% 29.86 in 1.6 mi NW 9.2 mph - N/A   Smoke
2:00 PM 89.6 °F - 50.0 °F 26% 29.83 in 2.2 mi NW 9.2 mph - N/A   Haze
2:30 PM 89.6 °F - 50.0 °F 26% 29.83 in 2.5 mi WNW 11.5 mph - N/A   Haze
3:00 PM 89.6 °F - 50.0 °F 26% 29.80 in 2.5 mi WNW 13.8 mph - N/A   Haze
3:30 PM 89.6 °F - 46.4 °F 22% 29.80 in 2.5 mi NW 12.7 mph - N/A   Haze
4:00 PM 89.6 °F - 46.4 °F 22% 29.80 in 2.5 mi NW 13.8 mph - N/A   Haze
4:30 PM 89.6 °F - 46.4 °F 22% 29.80 in 2.5 mi NW 15.0 mph - N/A   Haze
5:00 PM 87.8 °F - 46.4 °F 24% 29.77 in 2.5 mi WNW 11.5 mph 23.0 mph N/A   Haze
5:30 PM 87.8 °F - 46.4 °F 24% 29.77 in 2.5 mi WNW 15.0 mph - N/A   Haze
6:00 PM 86.0 °F 84.2 °F 53.6 °F 33% 29.77 in 2.5 mi WNW 13.8 mph - N/A   Haze
6:30 PM 84.2 °F - 51.8 °F 33% 29.80 in 2.5 mi WNW 11.5 mph - N/A   Haze
7:00 PM 80.6 °F 80.5 °F 55.4 °F 42% 29.80 in 2.5 mi WNW 9.2 mph - N/A   Haze
7:30 PM 80.6 °F 80.8 °F 57.2 °F 45% 29.80 in - West 6.9 mph - N/A   Haze
8:00 PM 75.2 °F - 62.6 °F 65% 29.80 in - West 8.1 mph - N/A   Haze
8:30 PM 75.2 °F - 60.8 °F 61% 29.80 in - West 8.1 mph - N/A   Haze
9:30 PM 75.2 °F - 60.8 °F 61% 29.80 in 1.2 mi West 5.8 mph - N/A   Haze
10:00 PM 75.2 °F - 62.6 °F 65% 29.80 in 1.1 mi West 6.9 mph - N/A   Haze
11:00 PM 75.2 °F - 62.6 °F 65% 29.80 in 1.1 mi WNW 8.1 mph - N/A   Haze
11:30 PM 75.2 °F - 62.6 °F 65% 29.80 in 1.6 mi West 8.1 mph - N/A   Haze